GW2214 Weather Reports


time (UTC)temp
C
wind
direction
speed
KPH
gust
KPH
rain 1hr
cm
rain 24hr
cm
rain mn
cm
humidity
%
barometer
mb
20260504081512 9 203 0.0 0.0 0.00 0.00 0.00 69 1002.0
20260504050104 10 220 0.0 0.0 0.00 0.00 0.00 53 1002.0
20260504044557 10 228 0.0 0.0 0.00 0.00 0.00 52 1001.9
20260504043053 10 228 0.0 0.0 0.00 0.00 0.00 52 1001.7
20260504041549 10 230 0.0 0.0 0.00 0.00 0.00 52 1001.6
20260504040051 10 245 0.0 0.0 0.00 0.00 0.00 52 1001.7
20260504034645 10 226 0.0 0.0 0.00 0.00 0.00 52 1001.6
20260504033045 10 224 0.0 0.0 0.00 0.00 0.00 51 1001.5
20260504031547 10 226 0.0 0.0 0.00 0.00 0.00 51 1001.5
20260504030044 10 226 0.0 0.0 0.00 0.00 0.00 51 1001.4
20260504024600 10 223 0.0 0.0 0.00 0.00 0.00 51 1001.5
20260504023045 10 219 0.0 0.0 0.00 0.00 0.00 50 1001.6
20260504021543 11 208 0.0 0.0 0.00 0.00 0.00 49 1001.7
20260504020044 11 222 0.0 0.0 0.00 0.00 0.00 49 1001.6
20260504014544 11 220 0.0 0.0 0.00 0.00 0.00 48 1001.4
20260504013042 11 221 0.0 0.0 0.00 0.00 0.00 46 1001.4
20260504011541 12 222 0.0 0.0 0.00 0.00 0.00 46 1001.1
20260504010041 12 220 0.0 0.0 0.00 0.00 0.00 45 1001.1
20260504004546 12 228 0.0 0.0 0.00 0.00 0.00 45 1000.8
20260504003046 12 216 0.0 0.0 0.00 0.00 0.00 44 1000.6
20260504001543 13 224 0.0 0.0 0.00 0.00 0.00 42 1000.4
20260504000104 13 261 0.0 0.0 0.00 0.00 0.00 41 1000.4
20260503234550 13 228 0.0 0.0 0.00 0.00 0.00 40 1000.3
20260503233039 14 266 0.0 0.0 0.00 0.00 0.00 39 1000.2
20260503231538 14 256 0.0 0.0 0.00 0.00 0.00 39 1000.0
20260503230042 14 235 0.0 0.0 0.00 0.00 0.00 39 1000.0
20260503224537 15 273 0.0 0.0 0.00 0.00 0.00 38 1000.0
20260503223039 15 255 0.0 0.0 0.00 0.00 0.00 38 999.9
20260503221547 15 249 0.0 0.0 0.00 0.00 0.00 37 1000.0
20260503220038 14 268 0.0 0.0 0.00 0.00 0.00 36 1000.1
20260503214536 15 297 0.0 0.0 0.00 0.00 0.00 37 1000.0
20260503213033 14 329 0.0 37.0 0.00 0.00 0.00 35 1000.0
20260503211531 14 230 0.0 0.0 0.00 0.00 0.00 36 999.9
20260503210031 14 320 0.0 0.0 0.00 0.00 0.00 37 1000.1
20260503204531 13 328 0.0 0.0 0.00 0.00 0.00 39 1000.0
20260503203040 14 328 0.0 0.0 0.00 0.00 0.00 38 1000.1
20260503201534 13 351 0.0 0.0 0.00 0.00 0.00 40 1000.3
20260503200026 13 300 0.0 16.1 0.00 0.00 0.00 39 1000.4
20260503194525 13 276 0.0 1.6 0.00 0.00 0.00 39 1000.4
20260503193024 13 336 0.0 22.5 0.00 0.00 0.00 38 1000.6
20260503191523 13 313 0.0 0.0 0.00 0.00 0.00 38 1000.7
20260503190035 13 351 0.0 0.0 0.00 0.00 0.00 41 1000.8
20260503184522 12 300 0.0 1.6 0.00 0.00 0.00 38 1000.8
20260503183025 12 314 0.0 1.6 0.00 0.00 0.00 40 1000.9
20260503181518 12 205 0.0 14.5 0.00 0.00 0.00 39 1001.2
20260503180024 12 320 3.2 25.7 0.00 0.00 0.00 39 1001.1
20260503174516 11 269 0.0 6.4 0.00 0.00 0.00 40 1001.1
20260503173025 11 261 0.0 16.1 0.00 0.00 0.00 41 1001.4
20260503171509 11 334 1.6 19.3 0.00 0.00 0.00 43 1001.4